COSMOS 1375 DEB, 17794

Orbit data source: Space-Track

COSMOS 1375 DEB, 17794 is space debris in LEO originally from a launch on Sun, 06 Jun 1982 UTC launched from the Plesetsk Missile And Space Complex (PKMTR). Debris objects in space refer to the collection of defunct objects orbiting the Earth. Examples of debris include non-operational satellites, rocket bodies, and fragments generated from explosions, collisions, or faulty payload assembly.

Loading next visibility...
Identifier
17794, 1982-055AL
Orbit
LEO
Country
Flag of CISCIS
Related business
Manufacturer
Unknown
Mission
Spacecraft
Bus & Motor
Unknown
Mass
Unknown
Launch date (UTC)
1982-06-06 (44 years ago)
Launch vehicle
Unknown
Launch site
Plesetsk Missile And Space Complex (PKMTR)
Object type
Payload
Rocket body
Debris
Shape & HBR
Unknown shape, 0.1 m
Radar Cross Section
Medium (>0.1 m² and <1 m²)

Expand to show TLE details & history
Last TLE update: 2 days ago

TLE from 2 days ago
0 COSMOS 1375 DEB
1 17794U 82055AL  26171.38395361  .00000766  00000-0  55144-3 0  9994
2 17794  65.8155 257.2721 0053901 299.4236  60.1467 14.01983478 52690
Epoch: 2026-06-20T09:12Z
TLE epoch observation values (Epoch: 2026-06-20T09:12:53.591Z)
Latitude
0.00001°
Longitude
-149.55055°
Altitude
869.61 km
Speed
7.428 km/s
True Right ascension
17h 09m 05s
True Declination
0° 00' 00"
Sunlit
Object was in full shadow at epoch
Visualization orbit readout
Latitude
Unknown
Longitude
Unknown
Altitude
Unknown
Speed
Unknown
Apparent Right ascension
Unknown
Apparent Declination
Unknown
Sunlit
N/A
Visualization observer readout
Local Sidereal Time
00:39:27
Azimuth
Unknown
Elevation
Unknown
Doppler factor
Unknown
Orbital elements
Apogee altitude
924.586 km
Perigee altitude
846.283 km
Semi-major axis
7,263.572 km
Eccentricity
0.00539
Inclination
65.8155°
RAAN
257.2721°
Arg. of periapsis
299.4236°
True anomaly
60.68419°
Mean anomaly
60.1467°
Eccentric anomaly
60.41527°
Mean motion
3.50605 °/min
Orbital period
102.68 mins
BSTAR
0.00055144
Loading maneuver chart data...
Computing Atmospheric mass density...
Loading historical data...
Loading historical data...
Loading historical data...
Loading historical data...
Loading historical data...
Loading historical data...
Loading historical data...

Documentation

Showing up to 5 results
|